Home   Weather   Medan   Past weeks

Flag for Indonesia Past Weather in Medan, North Sumatra, Indonesia — Yesterday and Last 2 Weeks

Now
84 °F

Passing clouds.


Feels Like: 94 °F
Forecast: 74 / 87 °F
Wind: 3 mph from North

Location: Medan / Polonia

Current Time: Apr 28, 2017 at 7:14:25 pm

Latest Report: Apr 28, 2017 at 6:30 pm


Visibility: 2 mi

Pressure: 29.80 "Hg

Humidity: 79%

Dew Point: 77 °F

Location of MedanLocation

Past Weather in Medan — Graph

°F

Medan Temperature Yesterday

Maximum temperature yesterday: 86 °F (at 12:00 pm)
Minimum temperature yesterday: 77 °F (at 12:00 am)
Average temperature yesterday: 81 °F

High & Low Weather Summary for the Past Weeks

 TemperatureHumidityPressure
High91 °F (Apr 16, 12:30 pm)100% (Apr 14, 1:30 am)29.95 "Hg (Apr 14, 1:30 am)
Low73 °F (Apr 21, 7:00 am)55% (Apr 28, 1:30 pm)29.71 "Hg (Apr 14, 4:30 pm)
Average82 °F86%29.82 "Hg
* Reported Apr 13 6:00 pm — Apr 28 6:00 pm, Medan, Weather by CustomWeather, © 2017

Note: Actual official high and low records may vary slightly from our data, if they occured in-between our weather recording intervals... More about our weather records

Advertising

Medan Weather History for the Previous 24 Hours

Scroll right to see more
 ConditionsComfort  
Time TempWeatherWind HumidityBarometerVisibility
6:00 pm
Fri, Apr 28
84 °FBroken clouds.7 mph74%29.80 "Hg4 mi
5:30 pm86 °FScattered clouds.9 mph70%29.77 "Hg5 mi
5:00 pm86 °FScattered clouds.10 mph70%29.77 "Hg5 mi
4:30 pm86 °FScattered clouds.10 mph70%29.77 "HgN/A
4:00 pm88 °FScattered clouds.9 mph66%29.77 "HgN/A
3:30 pm86 °FScattered clouds.10 mph70%29.77 "HgN/A
2:30 pm88 °FScattered clouds.10 mph62%29.77 "HgN/A
2:00 pm88 °FScattered clouds.10 mph62%29.80 "HgN/A
1:30 pm90 °FScattered clouds.10 mph55%29.83 "HgN/A
1:00 pm90 °FScattered clouds.14 mph59%29.83 "HgN/A
12:00 pm90 °FScattered clouds.7 mph63%29.86 "Hg5 mi
11:30 am90 °FScattered clouds.7 mph63%29.89 "Hg5 mi
11:00 am90 °FScattered clouds.5 mph63%29.86 "Hg5 mi
10:30 am88 °FScattered clouds.5 mph66%29.86 "Hg5 mi
10:00 am88 °FScattered clouds.7 mph62%29.86 "Hg5 mi
9:30 am86 °FScattered clouds.6 mph70%29.86 "Hg5 mi
9:00 am84 °FScattered clouds.5 mph79%29.86 "Hg5 mi
8:30 am82 °FScattered clouds.3 mph79%29.86 "Hg4 mi
8:00 am81 °FScattered clouds.2 mph89%29.86 "Hg2 mi
7:30 am77 °FScattered clouds.No wind94%29.86 "Hg2 mi
7:00 am75 °FFog.6 mph100%29.83 "Hg1 mi
6:30 am75 °FFog.2 mph100%29.83 "Hg1 mi
6:00 am75 °FFog.No wind94%29.83 "Hg2 mi
5:30 am75 °FFog.No wind94%29.83 "Hg2 mi
5:00 am75 °FFog.2 mph100%29.80 "Hg2 mi
4:30 am75 °FFog.3 mph100%29.80 "Hg2 mi
4:00 am75 °FFog.3 mph100%29.80 "Hg2 mi
3:30 am75 °FFog.5 mph100%29.83 "Hg2 mi
3:00 am75 °FFog.2 mph100%29.83 "Hg2 mi
2:30 am75 °FFog.2 mph100%29.83 "Hg2 mi
2:00 am77 °FFog.No wind94%29.83 "Hg2 mi
1:30 am77 °FFog.No wind94%29.83 "Hg1 mi
1:00 am77 °FFog.2 mph100%29.86 "Hg2 mi
12:30 am77 °FFog.5 mph100%29.86 "Hg2 mi
12:00 am77 °FFog.5 mph100%29.86 "Hg3 mi
11:30 pm
Thu, Apr 27
79 °FFog.5 mph94%29.89 "Hg3 mi
11:00 pm79 °FFog.3 mph94%29.89 "Hg2 mi
10:30 pm79 °FFog.3 mph94%29.89 "Hg2 mi
10:00 pm79 °FFog.5 mph100%29.86 "Hg2 mi
9:30 pm79 °FFog.6 mph100%29.86 "Hg2 mi
9:00 pm81 °FPassing clouds.5 mph94%29.83 "Hg1 mi
8:30 pm81 °FPassing clouds.3 mph94%29.83 "Hg2 mi
7:30 pm82 °FPassing clouds.5 mph84%29.80 "Hg3 mi
7:00 pm82 °FPassing clouds.3 mph84%29.80 "Hg4 mi
Weather by CustomWeather, © 2017

See weather overviewHow to use our weather pages